Location: Gallinara
(44.0333°N, 8.2333°E)
Time: 14:42:26
(UTC+00:00)

Cosmos 2333 Rocket - Pass Details

Date: 25 September 2020
Orbit: 839 x 862 km, 70.8° (Epoch: 23 October)

Event Time Altitude Azimuth Distance (km) Brightness Sun altitude
Rises 03:47:40 0° 187° (S) 3,424 5.1 -16.9°
Reaches altitude 10° 03:50:10 10° 183° (S) 2,493 4.5 -16.4°
Maximum altitude 03:55:41 51° 109° (ESE) 1,079 3.1 -15.5°
Drops below altitude 10° 04:01:14 10° 35° (NE) 2,506 5.4 -14.5°
Sets 04:03:45 0° 30° (NNE) 3,445 6.1 -14.1°
